Location: Goheenville
(40.9070°N, 79.3720°W)
Time: 01:31:20
(UTC-04:00)

Meteor 2-10 Rocket - Visible Passes

Search period start: 24 April 2017 00:00
Search period end: 04 May 2017 00:00
Orbit: 734 x 884 km, 81.2° (Epoch: 22 April)

Date Brightness Start Highest point End Pass type
(mag) Time Alt. Az. Time Alt. Az. Time Alt. Az.
24 Apr 3.7 22:05:37 19° S 22:09:55 84° E 22:15:44 10° N visible
24 Apr 6.4 23:49:44 10° W 23:52:42 14° WNW 23:55:41 10° NNW visible
25 Apr 3.8 21:40:12 11° S 21:45:41 61° E 21:51:24 10° NNE visible
25 Apr 6.1 23:24:06 10° WSW 23:28:11 19° WNW 23:32:15 10° NNW visible
26 Apr 4.1 21:16:02 10° SSE 21:21:30 44° E 21:26:57 10° NNE visible
26 Apr 5.7 22:58:55 10° SW 23:03:43 26° WNW 23:08:30 10° NNW visible
27 Apr 4.5 20:52:18 10° SSE 20:57:21 32° E 21:02:24 10° NNE visible
27 Apr 5.2 22:34:02 10° SW 22:39:18 35° WNW 22:44:34 10° N visible
28 Apr 4.7 22:09:20 10° SSW 22:14:56 48° WNW 22:20:31 10° N visible
29 Apr 4.2 21:44:50 10° SSW 21:50:37 66° WNW 21:56:21 10° N visible
30 Apr 3.8 21:20:30 10° S 21:26:20 90° E 21:32:07 10° N visible
30 Apr 6.6 23:06:38 10° W 23:09:10 13° WNW 23:11:41 10° NW visible
01 May 3.8 20:56:21 10° S 21:02:06 66° E 21:07:47 10° NNE visible
01 May 6.4 22:40:50 10° WSW 22:44:39 18° WNW 22:48:25 10° NNW visible
02 May 6.0 22:15:33 10° WSW 22:20:10 24° WNW 22:24:44 10° NNW visible
03 May 5.6 21:50:36 10° SW 21:55:45 32° WNW 22:00:50 10° N visible
